Showing default

DRAGRACER 2(AUGURY), 46955

Orbit data source: Space-Track

DRAGRACER 2(AUGURY), 46955 is a payload satellite owned by TriSept (US) in SSO that was launched on Fri, 20 Nov 2020 UTC via an ELECTRON launch vehicle from the Rocket Lab Launch Complex (RLLC). Payload-class satellites include a variety of spacecraft equipped with specific instruments for various scientific and technological missions. These include communications satellites like Starlink; space stations such as the ISS; scientific satellites like the Hubble; Earth observation satellites from companies like Planet Labs, Umbra, and HawkEye 360; GPS; miniature CubeSats for education and research; and military/defense satellites.

Loading next visibility...
Identifier
46955, 2020-085AC
Orbit
SSO
Country
Flag of USUS
Related business
Manufacturer
Millenium ES
Mission
Operational Commercial Technology
Bus & Motor
CUBESAT 6U, Unknown motor
Mass
12 kg wet, 12 kg dry
Launch date (UTC)
2020-11-20 (5 years ago)
Launch vehicle
ELECTRON
Launch site
Rocket Lab Launch Complex (RLLC)
Object type
Payload
Rocket body
Debris
Shape & HBR
Box, Unknown HBR
Radar Cross Section
0.080 m², Medium (>0.1 m² and < 1m²)

Expand to show TLE details & history
Last TLE update: 21 hours ago

TLE from 21 hours ago
0 DRAGRACER 2(AUGURY)
1 46955U 20085AC  25341.01644666  .00034258  00000-0  45629-3 0  9993
2 46955  97.5811 157.8400 0005102 258.1890 101.8793 15.58062643281828
Epoch: 2025-12-07T00:23Z
TLE epoch observation values (Epoch: 2025-12-07T00:23:40.991Z)
Latitude
-0.00002°
Longitude
75.88332°
Altitude
397.114 km
Speed
7.672 km/s
True Right ascension
10h 31m 21s
True Declination
0° 00' 00"
Sunlit
Object was in daylight at epoch
Visualization orbit readout
Latitude
Unknown
Longitude
Unknown
Altitude
Unknown
Speed
Unknown
Apparent Right ascension
Unknown
Apparent Declination
Unknown
Sunlit
N/A
Visualization observer readout
Local Sidereal Time
19:47:45
Azimuth
Unknown
Elevation
Unknown
Doppler factor
Unknown
Orbital elements
Apogee altitude
393.641 km
Perigee altitude
386.734 km
Semi-major axis
6,768.324 km
Eccentricity
0.00051
Inclination
97.5811°
RAAN
157.84°
Arg. of periapsis
258.189°
True anomaly
101.9365°
Mean anomaly
101.8793°
Eccentric anomaly
101.9079°
Mean motion
3.89782 °/min
Orbital period
92.36 mins
BSTAR
0.00045629
Loading maneuver chart data...
Computing Atmospheric mass density...

Documentation

Showing up to 5 results
|